Location: Corte Bragagnani
(45.3000°N, 11.1000°E)
Time: 11:13:20
(UTC+00:00)

Cosmos 1959 Rocket - Pass Details

Date: 09 April 2020
Orbit: 946 x 998 km, 82.9° (Epoch: 25 May)

Event Time Altitude Azimuth Distance (km) Brightness Sun altitude
Rises 19:40:39 0° 353° (N) 3,714 8.1 -18.1°
Reaches altitude 10° 19:43:14 10° 357° (N) 2,755 7.3 -18.4°
Maximum altitude 19:49:31 66° 79° (E) 1,066 4.5 -19.4°
Enters shadow 19:52:40 30° 152° (SSE) 1,659 5.2 -19.8°
